Regional Weather Roundup
Issued by NWS

Home | Current Version | Previous Version | Text Only | Print | Product List | Glossary On
Versions: 1 2 3 4 5 6 7 8 9 10 11 12 13 14 15 16 17 18 19 20 21 22 23 24 25 26 27 28 29 30 31 32 33 34 35 36 37 38 39 40 41 42 43 44 45 46 47 48 49 50
980
ASUS43 KLMK 250002
RWRKY
KENTUCKY REGIONAL WEATHER ROUNDUP
NATIONAL WEATHER SERVICE LOUISVILLE KY
800 PM EDT FRI MAR 24 2017

NOTE "FAIR" INDICATES FEW OR NO CLOUDS BELOW 12,000 FEET
WITH NO SIGNIFICANT WEATHER AND/OR OBSTRUCTIONS TO VISIBILITY.

KYZ001>023-026-027-061>063-070>075-250100-
WESTERN AND SOUTH CENTRAL KENTUCKY

CITY           SKY/WX    TMP DP  RH WIND       PRES   REMARKS
PADUCAH        CLOUDY    71  54  54 S9        30.02S
HENDERSON      CLOUDY    70  52  52 S13       30.03F
OWENSBORO      CLOUDY    69  53  56 S16       30.08F
HOPKINSVILLE   MOCLDY    71  53  52 S7        30.10F
BOWLING GREEN  CLOUDY    71  53  52 S10       30.15R
GLASGOW        NOT AVBL
$$

KYZ024-025-028>034-038-045-046-053-250100-
NORTH CENTRAL KENTUCKY

CITY           SKY/WX    TMP DP  RH WIND       PRES   REMARKS
LOUISVILLE/SDF CLOUDY    73  50  44 S10       30.12R
LOUISVILLE/LOU MOCLDY    73  52  47 S8        30.13R
FORT KNOX      NOT AVBL
$$

KYZ035>037-039>044-047>052-055>060-089>105-250100-
NORTHEAST KENTUCKY

CITY           SKY/WX    TMP DP  RH WIND       PRES   REMARKS
LEXINGTON      MOCLDY    69  50  50 S8        30.16S
COVINGTON      PTCLDY    70  53  54 S12       30.11R
FRANKFORT      PTCLDY    70  50  49 SW7       30.14R
$$

KYZ054-064>069-076>088-106>120-250100-
SOUTHEAST KENTUCKY

CITY           SKY/WX    TMP DP  RH WIND       PRES   REMARKS
JACKSON        PTCLDY    71  48  43 SW8       30.19S
LONDON         PTCLDY    69  47  45 SW8       30.22R
SOMERSET       NOT AVBL
MIDDLESBORO    CLEAR     67  49  52 SW7       30.26R
MONTICELLO     CLOUDY    68  51  54 SE8G17    30.22R
$$





USA.gov is the U.S. government's official web portal to all federal, state and local government web resources and services.